Weather History for KSAW - July, 2013

Change the Weather History Date:

Friday, July 5, 2013

  Actual Average (KESC) Record (KESC)
Temperature  
Mean Temperature 72 °F -  
Max Temperature 86 °F 72 °F 89 °F (2012)
Min Temperature 59 °F 55 °F 40 °F (1967)
Cooling Degree Days 8    
Growing Degree Days 22 (Base 50)    
Moisture  
Dew Point 59 °F    
Average Humidity 72    
Maximum Humidity 94    
Minimum Humidity 35    
Precipitation  
Precipitation 0.00 in - - ()
Sea Level Pressure  
Sea Level Pressure 29.98 in    
Wind  
Wind Speed 8 mph (SSW)    
Max Wind Speed 20 mph    
Max Gust Speed 25 mph    
Visibility 10 miles    
Events      
Averages and records for this station are not official NWS values.
T = Trace of Precipitation, MM = Missing Value Source: NWS Daily Summary

Daily Weather History Graph

Daily Weather History Graph

Search for Another Location

Airport or City:

Trip Planner

Search our weather history database for the weather conditions in past years. The results will help you decide how hot, cold, wet, or windy it might be!

Date:

Astronomy

Jul. 05, 2013 Rise Set
Actual Time 6:04 AM EDT 9:44 PM EDT
Civil Twilight 5:25 AM EDT 10:22 PM EDT
Nautical Twilight 4:34 AM EDT 11:13 PM EDT
Astronomical Twilight 3:23 AM EDT 12:23 AM EDT
Moon 4:06 AM EDT (7/5) 7:35 PM EDT (7/5)
Length of Visible Light 16h 56m
Length of Day
15h 39m
Waning Crescent, 6% of the Moon is Illuminated
Jul 5
Waning Crescent
Jul 8
New
Jul 15
First Quarter
Jul 22
Full
Jul 29
Last Quarter

Hourly Weather History & Observations

Time (EDT) Temp. Heat Index Dew Point Humidity Pressure Visibility Wind Dir Wind Speed Gust Speed Precip Events Conditions
12:16 AM 65.5 °F - 60.8 °F 85% 30.00 in 10.0 mi South 9.2 mph - N/A   Clear
12:36 AM 65.3 °F - 60.6 °F 85% 30.00 in 10.0 mi SSW 9.2 mph - N/A   Clear
12:56 AM 64.4 °F - 60.4 °F 87% 30.00 in 10.0 mi SSW 6.9 mph - N/A   Clear
1:17 AM 64.4 °F - 60.4 °F 87% 30.00 in 10.0 mi SSW 6.9 mph - N/A   Clear
1:36 AM 63.5 °F - 60.1 °F 89% 30.00 in 10.0 mi SSW 5.8 mph - N/A   Clear
1:56 AM 62.6 °F - 59.9 °F 91% 30.00 in 10.0 mi South 6.9 mph - N/A   Clear
2:16 AM 62.6 °F - 59.9 °F 91% 30.00 in 10.0 mi SSW 3.5 mph - N/A   Clear
2:36 AM 62.2 °F - 59.7 °F 91% 30.00 in 10.0 mi SSW 4.6 mph - N/A   Clear
2:57 AM 62.1 °F - 59.5 °F 91% 30.00 in 10.0 mi SSW 5.8 mph - N/A   Clear
3:16 AM 61.5 °F - 59.4 °F 93% 30.00 in 10.0 mi SSW 5.8 mph - N/A   Clear
3:37 AM 61.3 °F - 59.2 °F 93% 30.00 in 10.0 mi SSW 3.5 mph - N/A   Clear
3:56 AM 61.2 °F - 59.0 °F 93% 30.00 in 10.0 mi Calm Calm - N/A   Clear
4:16 AM 60.3 °F - 58.3 °F 93% 30.00 in 10.0 mi SSW 5.8 mph - N/A   Clear
4:36 AM 60.3 °F - 58.3 °F 93% 30.00 in 10.0 mi SSW 3.5 mph - N/A   Clear
4:56 AM 59.9 °F - 57.9 °F 93% 29.99 in 10.0 mi SSW 3.5 mph - N/A   Clear
5:17 AM 59.7 °F - 57.9 °F 94% 30.00 in 10.0 mi SSW 5.8 mph - N/A   Clear
5:36 AM 59.9 °F - 57.9 °F 93% 30.00 in 10.0 mi SSW 4.6 mph - N/A   Clear
5:56 AM 59.5 °F - 57.7 °F 94% 30.00 in 7.0 mi SSW 3.5 mph - N/A   Clear
6:50 AM 59.0 °F - 57.2 °F 94% 30.00 in 10.0 mi SSW 3.5 mph - N/A   Clear
7:50 AM 62.6 °F - 59.0 °F 88% 30.01 in 10.0 mi SSW 3.5 mph - N/A   Clear
8:50 AM 69.8 °F - 59.0 °F 68% 30.01 in 10.0 mi SW 6.9 mph - N/A   Clear
9:50 AM 73.4 °F - 59.0 °F 61% 30.02 in 10.0 mi SW 6.9 mph - N/A   Clear
10:50 AM 77.0 °F - 59.0 °F 54% 30.01 in 10.0 mi SW 10.4 mph - N/A   Clear
11:50 AM 80.6 °F 80.8 °F 57.2 °F 45% 30.01 in 10.0 mi SW 12.7 mph 18.4 mph N/A   Scattered Clouds
12:55 PM 82.4 °F 81.7 °F 55.4 °F 39% 29.99 in 10.0 mi SW 12.7 mph 20.7 mph N/A   Scattered Clouds
1:50 PM 84.2 °F 83.0 °F 55.4 °F 37% 29.98 in 10.0 mi SSW 12.7 mph 19.6 mph N/A   Scattered Clouds
2:50 PM 84.2 °F 83.0 °F 55.4 °F 37% 29.97 in 10.0 mi SSW 12.7 mph 24.2 mph N/A   Scattered Clouds
3:50 PM 84.2 °F 83.0 °F 55.4 °F 37% 29.96 in 10.0 mi South 12.7 mph 18.4 mph N/A   Scattered Clouds
4:50 PM 86.0 °F 84.5 °F 55.4 °F 35% 29.94 in 10.0 mi SW 17.3 mph 25.3 mph N/A   Scattered Clouds
5:50 PM 82.4 °F 81.4 °F 53.6 °F 37% 29.94 in 10.0 mi SSW 19.6 mph 24.2 mph N/A   Scattered Clouds
6:50 PM 84.2 °F 82.8 °F 53.6 °F 35% 29.94 in 10.0 mi SSW 19.6 mph - N/A   Partly Cloudy
7:50 PM 82.4 °F 81.7 °F 55.4 °F 39% 29.94 in 10.0 mi SSW 17.3 mph - N/A   Partly Cloudy
8:50 PM 80.6 °F 80.5 °F 55.4 °F 42% 29.94 in 10.0 mi SSW 10.4 mph - N/A   Clear
9:45 PM 75.2 °F - 62.6 °F 65% 29.94 in 10.0 mi South 10.4 mph - N/A   Clear
10:16 PM 72.7 °F - 62.1 °F 69% 29.94 in 10.0 mi South 11.5 mph - N/A   Clear
10:37 PM 71.8 °F - 62.2 °F 72% 29.96 in 10.0 mi South 12.7 mph - N/A   Clear
10:56 PM 71.6 °F - 62.4 °F 73% 29.96 in 10.0 mi South 11.5 mph - N/A   Clear
11:16 PM 71.1 °F - 62.2 °F 74% 29.95 in 10.0 mi South 12.7 mph - N/A   Clear
11:36 PM 70.5 °F - 62.2 °F 75% 29.96 in 10.0 mi SSW 10.4 mph - N/A   Clear
11:56 PM 69.8 °F - 62.2 °F 77% 29.96 in 10.0 mi South 11.5 mph - N/A   Clear